Volver al catálogo

EXPLORER 22

ActivoCienciaLEO
NORAD 899·PAYLOAD·🇺🇸 United States

Lanzado Oct 10, 1964 desde Vandenberg Space Force Base

Loading…

Próximos Pases (próximas 24 horas)

TLE

ActualizadoSource: Space-Track

Época: Sep 14, 2026, 15:44 UTC

1 00899U 64064A   26257.65581429  .00000138  00000-0  11488-3 0  9995
2 00899  79.6919  29.0888 0118887 336.2197  23.3485 13.83074859117347

Sigue EXPLORER 22 en tiempo real con AllMySat

Download on the App Store